This demonstration page uses our WeatherBlox Daily Observations layout. Learn more.

Left ArrowRight Arrow

53.62937, 11.41316

Hourly Observations for September 24, 2022

Temp ( °F °C ) Dew Point ( °F °C ) Humidity (%) Winds ( mph kmh ) Pressure ( in mb ) Visibility ( mi km ) Precip ( " mm )
12:20 am 00:20 Cloudy 54 12 46 8 76 76 S 3 6 29.91 1013 6 10 0.00 0.00
12:50 am 00:50 Cloudy 54 12 48 9 82 82 VRB 2 4 29.91 1013 6 10 0.00 0.00
1:20 am 01:20 Cloudy 52 11 48 9 87 87 VRB 1 2 29.91 1013 6 10 0.00 0.00
1:50 am 01:50 Mostly Cloudy 50 10 48 9 93 93 Calm 29.91 1013 6 10 0.00 0.00
2:20 am 02:20 Mostly Cloudy 50 10 48 9 93 93 Calm 29.91 1013 6 10 0.00 0.00
2:50 am 02:50 Mostly Cloudy 50 10 48 9 93 93 Calm 29.91 1013 6 10 0.00 0.00
3:20 am 03:20 Mostly Cloudy 50 10 48 9 93 93 VRB 1 2 29.88 1012 6 10 0.00 0.00
3:50 am 03:50 Mostly Cloudy 50 10 48 9 93 93 VRB 2 4 29.88 1012 6 10 0.00 0.00
4:20 am 04:20 Partly Cloudy 50 10 48 9 93 93 Calm 29.88 1012 6 10 0.00 0.00
4:50 am 04:50 Partly Cloudy 50 10 48 9 93 93 WSW 1 2 29.88 1012 6 10 0.00 0.00
5:20 am 05:20 Mostly Cloudy 50 10 48 9 93 93 Calm 29.88 1012 6 10 0.00 0.00
5:50 am 05:50 Mostly Clear 52 11 48 9 87 87 VRB 3 6 29.88 1012 6 10 0.00 0.00
6:20 am 06:20 Mostly Clear 52 11 48 9 87 87 VRB 2 4 29.88 1012 6 10 0.00 0.00
6:50 am 06:50 Mostly Clear 52 11 48 9 87 87 S 3 6 29.88 1012 6 10 0.00 0.00
7:20 am 07:20 Mostly Cloudy 52 11 46 8 82 82 VRB 2 4 29.88 1012 6 10 0.00 0.00
7:50 am 07:50 Mostly Cloudy 52 11 48 9 87 87 VRB 2 4 29.88 1012 6 10 0.00 0.00
8:20 am 08:20 Partly Cloudy 52 11 50 10 94 94 VRB 2 4 29.88 1012 6 10 0.00 0.00
8:50 am 08:50 Partly Cloudy 54 12 50 10 88 88 VRB 2 4 29.88 1012 6 10 0.00 0.00
9:20 am 09:20 Partly Cloudy 55 13 50 10 82 82 S 3 6 29.88 1012 6 10 0.00 0.00
9:50 am 09:50 Partly Cloudy 55 13 50 10 82 82 S 5 7 29.88 1012 6 10 0.00 0.00
10:20 am 10:20 Mostly Sunny 57 14 50 10 77 77 SSW 5 7 29.88 1012 6 10 0.00 0.00
10:50 am 10:50 Partly Cloudy 57 14 50 10 77 77 VRB 3 6 29.88 1012 6 10 0.00 0.00
11:20 am 11:20 Cloudy 57 14 52 11 82 82 SSW 5 7 29.91 1013 6 10 0.00 0.00
11:50 am 11:50 Cloudy 55 13 52 11 88 88 VRB 3 6 29.91 1013 6 10 0.00 0.00
12:20 pm 12:20 Cloudy 55 13 52 11 88 88 VRB 3 6 29.91 1013 6 10 0.00 0.00
12:50 pm 12:50 Cloudy 55 13 52 11 88 88 S 5 7 29.91 1013 5 8 0.00 0.00
1:20 pm 13:20 Cloudy with Drizzle 54 12 52 11 94 94 S 3 6 29.91 1013 2 3 0.00 0.00
1:50 pm 13:50 Mostly Cloudy with Drizzle 54 12 52 11 94 94 VRB 3 6 29.91 1013 2 4 0.00 0.00
2:20 pm 14:20 Mostly Cloudy 55 13 54 12 94 94 VRB 2 4 29.91 1013 5 8 0.00 0.00
2:50 pm 14:50 Mostly Cloudy with Mist and Fog 55 13 54 12 94 94 S 3 6 29.91 1013 2 4 0.00 0.00
3:20 pm 15:20 Mostly Cloudy with Drizzle 55 13 54 12 94 94 S 5 7 29.91 1013 2 3 0.00 0.00
3:50 pm 15:50 Mostly Cloudy with Drizzle 54 12 54 12 100 100 S 3 6 29.91 1013 2 3 0.00 0.00
4:20 pm 16:20 Mostly Cloudy with Drizzle 55 13 54 12 94 94 VRB 2 4 29.91 1013 2 3 0.00 0.00
4:50 pm 16:50 Mostly Cloudy 55 13 54 12 94 94 VRB 2 4 N/A 5 8 0.00 0.00
5:20 pm 17:20 Mostly Cloudy with Light Rain 55 13 54 12 94 94 SSE 3 6 29.88 1012 4 6 0.00 0.00
5:50 pm 17:50 Mostly Cloudy 55 13 54 12 94 94 SSE 3 6 29.88 1012 4 7 0.00 0.00
6:20 pm 18:20 Mostly Cloudy 55 13 54 12 94 94 VRB 2 4 29.88 1012 6 10 0.00 0.00
6:50 pm 18:50 Mostly Cloudy 55 13 54 12 94 94 VRB 2 4 29.88 1012 6 9 0.00 0.00
7:20 pm 19:20 Cloudy 55 13 54 12 94 94 VRB 2 4 29.88 1012 5 8 0.00 0.00
7:50 pm 19:50 Cloudy 55 13 54 12 94 94 SE 3 6 29.88 1012 4 6 0.00 0.00
8:20 pm 20:20 Cloudy 55 13 54 12 94 94 SE 3 6 29.88 1012 4 6 0.00 0.00
8:50 pm 20:50 Mostly Cloudy 55 13 54 12 94 94 VRB 2 4 29.91 1013 4 6 0.00 0.00
9:20 pm 21:20 Cloudy 55 13 54 12 94 94 VRB 2 4 29.91 1013 4 6 0.00 0.00
9:50 pm 21:50 Cloudy with Mist and Fog 55 13 54 12 94 94 VRB 2 4 29.91 1013 3 5 0.00 0.00
10:20 pm 22:20 Mostly Cloudy 54 12 54 12 100 100 E 2 4 29.91 1013 3 5 0.00 0.00
10:50 pm 22:50 Cloudy 54 12 54 12 100 100 VRB 2 4 29.91 1013 3 5 0.00 0.00
11:20 pm 23:20 Mostly Cloudy 54 12 54 12 100 100 VRB 2 4 29.91 1013 3 5 0.00 0.00
11:50 pm 23:50 Mostly Cloudy 54 12 54 12 100 100 VRB 2 4 29.91 1013 3 5 0.00 0.00

Powered by AerisWeather